Home   Weather   Elizabeth   Past weeks

Flag for USA Past Weather in Elizabeth, New Jersey, USA — Yesterday and Last 2 Weeks

Now
39 °F

Drizzle. Fog.


Feels Like: 32 °F
Forecast: 40 / 47 °F
Wind: 10 mph from North

Location: Newark International Airport

Current Time: Jan 17, 2017 at 11:33:44 pm

Latest Report: Jan 17, 2017 at 11:03 pm


Visibility: 2 mi

Pressure: 29.97 "Hg

Humidity: 96%

Dew Point: 38 °F

Location of ElizabethLocation

Past Weather in Elizabeth — Graph

°F

Elizabeth Temperature Yesterday

Maximum temperature yesterday: 43 °F (at 1:51 pm)
Minimum temperature yesterday: 25 °F (at 3:51 am)
Average temperature yesterday: 36 °F

High & Low Weather Summary for the Past Weeks

 TemperatureHumidityPressure
High67 °F (Jan 12, 1:51 pm)100% (Jan 3, 4:51 am)30.77 "Hg (Jan 3, 4:51 am)
Low12 °F (Jan 9, 3:51 am)29% (Jan 4, 8:51 pm)29.45 "Hg (Jan 4, 2:51 am)
Average35 °F67%30.21 "Hg
* Reported Jan 2 9:32 pm — Jan 17 9:51 pm, Elizabeth, Weather by CustomWeather, © 2017

Note: Actual official high and low records may vary slightly from our data, if they occured in-between our weather recording intervals... More about our weather records

Advertising

Elizabeth Weather History for the Previous 24 Hours

Scroll right to see more
 ConditionsComfort  
Time TempWeatherWind HumidityBarometerVisibility
9:51 pm
Tue, Jan 17
40 °FLight rain. Fog.9 mph97%30.00 "Hg2 mi
8:51 pm41 °FLight rain. Fog.7 mph93%30.02 "Hg2 mi
7:51 pm40 °FRain. Fog.6 mph97%30.03 "Hg2 mi
6:51 pm40 °FLight rain. Fog.7 mph97%30.05 "Hg2 mi
5:51 pm41 °FHeavy rain. Fog.6 mph86%30.08 "Hg3 mi
4:51 pm41 °FFog.8 mph86%30.08 "Hg5 mi
4:42 pm41 °FFog.6 mph86%30.09 "Hg4 mi
3:51 pm40 °FFog.6 mph86%30.09 "Hg5 mi
2:51 pm40 °FLight rain. Fog.7 mph86%30.09 "Hg3 mi
1:51 pm40 °FFog.5 mph86%30.12 "Hg3 mi
12:51 pm39 °FLight rain. Fog.No wind89%30.14 "Hg2 mi
12:24 pm38 °FRain. Fog.3 mph90%30.17 "Hg2 mi
11:51 am39 °FLight rain. Fog.3 mph86%30.17 "Hg3 mi
11:15 am38 °FLight rain. Fog.3 mph86%30.19 "Hg3 mi
10:51 am38 °FLight rain. Mostly cloudy.3 mph86%30.21 "Hg5 mi
10:07 am39 °FLight rain. More clouds than sun.3 mph76%30.23 "Hg5 mi
9:51 am39 °FLight rain. Mostly cloudy.5 mph76%30.23 "Hg5 mi
8:51 am41 °FLight rain. Mostly cloudy.5 mph58%30.23 "Hg10 mi
7:51 am40 °FMostly cloudy.No wind60%30.22 "Hg10 mi
7:44 am40 °FMostly cloudy.3 mph58%30.22 "Hg10 mi
6:51 am39 °FOvercast.8 mph62%30.22 "Hg10 mi
5:51 am39 °FMostly cloudy.6 mph60%30.22 "Hg10 mi
4:51 am39 °FMostly cloudy.7 mph60%30.22 "Hg10 mi
3:51 am40 °FOvercast.7 mph58%30.24 "Hg10 mi
2:51 am39 °FOvercast.9 mph60%30.26 "Hg10 mi
1:51 am40 °FMostly cloudy.7 mph55%30.26 "Hg10 mi
12:51 am40 °FOvercast.12 mph55%30.28 "Hg10 mi
11:51 pm
Mon, Jan 16
40 °FOvercast.8 mph55%30.29 "Hg10 mi
Weather by CustomWeather, © 2017

See weather overviewHow to use our weather pages